星链-2548 (STARLINK-2548 )

导读 | 星芒AI

STARLINK-2548 是 SpaceX Starlink 项目中的一颗低轨通信卫星,属于第二代 Starlink 卫星(Gen2)系列。该卫星于2023年发射,旨在为全球用户提供高速、低延迟的互联网服务。它运行在约550公里高的轨道上,配备先进通信设备和激光链路,以提升网络性能和卫星间通信能力。STARLINK-2548 是 SpaceX 扩展其全球宽带网络计划的重要组成部分。

基本信息
目录编号:
48285
目录名称:
STARLINK-2548
国际标识:
2021-036K
轨道中心:
EARTH
卫星名称:
星链-2548
卫星全名:
星链-2548 (STARLINK-2548 )
卫星状态:
已陨落 最后检测时间 2024-05-25
发射日期:
2021-04-29 UTC
国别 :
美国 (US)
星等 :
--
轨道信息
数据来源 国际轨道数据
星历时间: 2024-05-25T14:00:00+0800
轨道信息已过期525天
半长轴: 6567.458km
偏心率: 0.0004057
轨道倾角: 53.038°
近地点辐角 223.800°
升交点赤经 101.481°
平近点角 355.171°
近地点: 186.658km
远地点: 191.988km
周期: 88.279分钟
每日圈数: 16.311988
详细信息
固有亮度:
5
最大亮度:
2.5
卫星平台:
Starlink V1.0
覆盖范围:
全球
运营商:
太空探索技术公司
运营商所在国:
美国
制造商(研发单位):
太空探索技术公司
制造商所在国:
美国
使用方式:
暂无
卫星简介
星链(Starlink)计划是由太空探索技术公司(SpaceX)提出的一个巨型低轨卫星互联网星座项目,计划在2019年至2024年间在太空搭建由约1.2万颗卫星组成的“星链”网络,其中1584颗将部署在地球上空550千米处的近地轨道,并从2020年开始工作。该卫星已陨落。